Starlink 11535

operational
NORAD ID: 62595 Int'l Des: 2025-008 Owner: SPXS Country: US Constellation: starlink
LEOCIRCULAR

Starlink 11535について

説明を読み込み中...

リアルタイム位置

3D地球を読み込み中...

次回通過

高度履歴

Altitude vs Time

uPlot chart will show altitude changes over time

軌道要素

1 62595U 25008J 25259.94909270 .00253392 00000-0 19098-2 0 9998
2 62595 43.0014 93.0308 0002883 251.9310 108.1243 15.70948840 39812
Epoch: Sep 16, 2025 • Age: 22 hours

現在のステータス

高度 356.4 km
速度 7.70 km/s
衛星直下点 -13.76°S, 29.24°W
打ち上げ日 Jan 13, 2025
運用期間 0.6 years
タイプ internet

技術仕様

分類 Payload
質量 960.00 kg
乾燥質量 910.00 kg
総質量 960.00 kg
長さ 0.30 m
直径 4.10 m
スパン 29.00 m
形状 Box + pan
製造者 SPXS
バスタイプ Starlink V2MD
フェーズステータス In Orbit
所有者/国 SPXS/US

大規模コンステレーション

Loading constellations...